Retour au catalogue

ONEWEB-0558

ActifCommunicationsPO
NORAD 56059·PAYLOAD·🇬🇧 United Kingdom

Lancé Mar 26, 2023 depuis Satish Dhawan Space Centre

Loading…

Prochains Passages (prochaines 24 heures)

TLE

FraisSource: CelesTrak SupGP

Époque: Sep 14, 2026, 16:57 UTC

1 56059C 23043P   26257.70678657  .00002218  00000+0  53762-2 0  2579
2 56059  87.9272 226.1574 0001802  79.4688 359.6528 13.21820819    16

Suivez ONEWEB-0558 en temps réel avec AllMySat

Download on the App Store